Location: Chèvreville
(49.1099°N, 2.8495°E)
Time: 20:13:40
(UTC+00:00)

IRIDIUM 103 - Pass Details

Date: 28 January 2023
Orbit: 776 x 779 km, 86.4° (Epoch: 21 March)

Event Time Altitude Azimuth Distance (km) Brightness Sun altitude
Rises 18:43:59 0° 359° (N) 3,277 7.5 -20.5°
Reaches altitude 10° 18:46:24 10° 4° (N) 2,344 6.7 -20.9°
Maximum altitude 18:51:32 54° 82° (E) 950 4.3 -21.7°
Enters shadow 18:53:25 35° 138° (SE) 1,232 5.0 -22.0°
Exits shadow 18:58:14 - 163° (SSE) 2,942 7.2 -22.8°
Sets 18:59:02 0° 164° (SSE) 3,248 7.4 -22.9°
